Wind_Speed
8 8 9 8 8 9 10 11 10 8 6 5 5 6 5 5 3 2 2 3 3 3 2 2 2 2 1 1 1 2 3 4 5 5 6 7 8 8 9 9 9 9 9 9 9 9 9 8 7
12 11 12 11 10 11 11 9 9 10 8 8 8 7 4 3 4 3 3 3 3 3 3 3 2 2 2 2 2 2 3 4 5 6 7 8 8 9 10 10 10 10 10 11 11 10 10 9 8
14 14 14 13 12 12 13 12 11 11 9 12 11 8 4 2 3 4 4 4 3 3 3 3 3 3 2 2 2 3 4 4 5 6 7 8 9 10 11 11 11 12 12 12 12 11 11 10 10
16 16 15 15 14 14 16 16 14 14 12 13 11 7 4 3 4 4 4 3 3 3 3 3 3 2 2 3 3 4 4 5 6 7 9 10 10 11 12 12 13 13 13 13 13 13 12 12 11
17 17 16 15 14 16 17 18 17 16 15 16 16 13 6 5 5 5 4 3 3 3 3 3 3 3 3 3 4 5 6 7 8 9 10 11 12 12 13 14 14 14 14 14 15 14 14 13 12
18 18 16 14 13 16 17 17 18 20 20 19 17 14 11 8 8 7 5 4 4 4 3 3 3 4 4 5 6 7 8 9 10 11 12 13 14 14 15 16 15 15 16 16 16 17 16 15 14
18 18 16 14 14 17 18 18 19 23 23 20 18 16 15 12 10 10 7 5 5 4 3 3 4 5 6 7 8 9 10 11 12 14 15 15 15 16 17 17 18 18 18 18 18 18 18 18 17
18 18 17 16 17 18 18 19 21 23 24 20 19 17 16 13 11 10 8 6 6 4 4 5 6 7 8 8 9 10 11 13 14 15 16 16 17 18 19 19 19 19 20 20 20 20 20 20 19
17 17 16 16 19 19 21 22 24 25 26 25 24 20 14 12 10 11 9 8 6 5 6 7 8 9 9 10 11 12 13 14 15 16 16 17 17 18 19 19 19 20 21 20 20 20 20 20 20
15 14 12 14 18 20 22 25 26 28 28 27 24 18 15 13 10 10 10 9 7 6 6 8 9 10 11 11 12 13 13 14 15 15 16 16 16 17 17 17 18 19 19 19 19 19 19 20 20
10 9 9 12 15 18 22 24 26 29 29 26 24 21 19 15 11 10 9 8 7 6 7 9 10 11 12 12 13 13 13 14 14 15 15 15 15 16 16 16 16 18 18 18 18 18 19 19 20
7 7 8 9 11 15 18 21 22 25 27 26 24 22 17 15 12 10 9 9 8 8 9 10 11 11 12 13 13 12 12 13 14 15 15 15 15 14 14 14 15 16 16 16 17 17 19 20 20
7 7 7 9 11 13 15 17 20 21 20 22 19 18 16 15 15 13 11 10 9 9 10 10 11 12 12 12 12 11 12 13 13 13 13 13 13 13 13 14 15 15 15 14 14 16 17 18 20
8 9 9 10 13 15 15 15 17 17 18 17 16 15 15 14 15 13 12 11 8 8 9 10 10 10 10 10 10 10 11 12 12 13 14 14 13 13 14 14 15 14 14 14 15 16 16 17 18
8 8 10 13 15 17 17 16 16 15 13 12 11 11 11 12 13 12 11 11 9 8 8 9 9 8 8 8 9 10 10 11 12 12 13 13 14 14 14 15 15 15 15 16 16 16 17 17 17
9 11 14 15 16 16 17 17 16 14 13 12 10 9 8 9 10 10 10 8 8 7 7 8 8 8 8 8 8 9 9 10 10 11 12 13 14 14 14 15 15 15 16 16 16 16 17 17 17
12 15 17 18 17 16 17 17 15 14 13 11 11 10 10 9 8 8 8 7 7 7 7 7 7 7 8 7 7 8 7 8 10 11 12 12 13 13 14 14 14 15 15 15 15 15 16 16 17
15 17 18 19 17 17 16 16 15 14 13 12 10 9 8 9 9 8 7 6 7 6 6 6 6 6 7 7 7 7 7 8 10 11 12 12 12 13 13 14 14 14 14 14 15 15 15 16 16
16 17 18 18 17 16 16 16 16 14 13 10 7 6 7 9 9 9 8 6 7 7 6 6 5 5 6 6 6 7 7 8 9 10 11 12 12 12 13 13 13 13 13 14 14 14 15 15 16
14 17 18 18 17 16 16 15 15 12 12 7 3 2 4 7 8 8 7 6 6 5 5 3 3 4 5 5 6 6 7 8 8 9 10 11 11 11 12 13 13 13 13 13 13 14 15 15 15
13 16 17 17 17 15 15 14 12 11 10 8 5 3 5 6 7 8 6 5 4 3 3 3 3 4 4 5 6 6 7 8 8 9 9 10 10 11 12 13 13 13 13 14 14 15 16 16 16
13 13 14 15 15 15 13 12 9 8 9 9 9 7 6 6 6 5 4 3 3 2 2 2 3 4 4 5 5 6 7 8 9 9 10 10 11 12 13 14 14 14 14 15 15 16 16 17 17
12 12 13 13 12 12 10 9 7 7 7 8 7 7 6 5 5 4 3 2 2 2 2 3 3 3 4 4 5 6 7 8 9 10 11 11 12 13 14 15 15 16 16 16 17 17 18 19 19
12 11 12 11 11 11 8 6 6 6 7 7 7 6 5 5 4 3 3 1 1 2 2 3 3 3 4 4 5 7 8 9 10 10 11 12 13 14 15 16 16 17 18 18 19 19 20 21 21
12 10 11 12 11 11 8 4 3 5 6 6 7 6 5 4 3 2 1 1 2 2 2 3 3 4 4 5 6 7 8 10 10 11 13 14 15 16 16 17 17 18 19 20 21 22 22 23 23
11 11 12 13 13 11 7 5 2 4 6 6 5 4 3 2 2 2 1 2 2 2 3 3 3 4 5 6 7 8 9 10 11 13 14 15 16 17 18 18 19 20 21 22 23 24 25 26 26
11 11 12 13 13 11 7 5 2 2 3 4 4 3 2 1 0 1 2 2 3 3 3 4 4 5 6 7 8 9 10 12 13 14 16 17 18 19 20 20 21 22 23 24 26 27 28 28 28
13 12 14 14 14 12 8 6 5 3 3 2 2 2 1 0 1 2 2 3 3 3 3 4 5 6 7 8 9 10 12 13 14 16 17 18 19 20 21 22 23 24 25 26 28 29 29 29 29
14 15 15 14 14 14 13 9 8 7 6 4 2 2 2 1 1 2 2 2 3 3 4 5 6 7 8 10 11 12 14 15 16 17 19 20 21 22 23 24 26 27 28 29 30 31 31 31 31
16 16 16 14 13 13 14 12 10 10 8 7 5 3 3 3 2 2 2 3 4 5 6 7 8 9 10 12 13 15 16 17 18 19 21 22 23 24 25 26 27 29 30 31 32 33 33 33 33
Wind_Direction
296 291 287 288 292 294 292 290 292 292 284 279 290 286 305 327 323 301 276 237 232 213 198 191 195 199 198 209 271 295 305 312 314 313 314 316 318 317 317 316 315 316 318 319 319 318 319 322 325
292 290 288 290 294 294 294 296 290 287 279 283 284 267 269 298 298 280 246 235 226 215 206 206 212 217 214 228 259 280 292 300 302 304 305 307 309 310 311 311 308 307 308 309 311 310 309 309 311
293 291 288 289 291 292 293 299 287 285 285 290 278 256 234 246 260 261 247 235 219 213 211 215 220 224 223 231 250 271 284 290 291 293 296 299 301 303 303 304 304 300 300 302 303 303 302 301 300
291 290 289 290 289 284 292 300 296 296 293 290 284 266 242 224 230 242 250 241 228 221 215 216 220 231 238 245 256 270 283 289 291 292 294 297 300 301 301 301 299 297 295 296 298 297 296 294 293
289 289 290 294 289 284 293 300 298 299 292 292 289 284 251 207 229 237 238 241 232 224 221 233 242 250 258 261 268 274 281 288 291 292 294 296 298 298 297 296 295 293 292 293 293 292 292 290 289
286 287 287 289 284 283 291 295 293 296 289 287 290 286 273 238 222 219 227 240 236 230 235 255 264 273 276 276 277 280 283 287 290 291 293 293 293 292 291 291 290 289 290 290 290 288 286 285 285
283 283 280 276 270 270 281 287 288 293 291 286 287 281 273 259 232 214 210 224 235 233 249 269 278 283 283 282 281 284 286 289 290 291 291 291 289 288 287 286 285 284 285 286 285 284 281 279 279
282 278 272 266 261 260 270 278 285 285 289 290 288 283 269 266 238 222 211 215 225 244 264 272 278 283 283 283 283 284 286 287 287 289 289 288 288 288 286 283 282 281 281 280 279 279 276 273 273
284 276 270 263 259 257 261 269 276 279 285 287 286 280 263 260 243 221 212 206 222 246 262 270 277 283 285 283 282 282 284 285 286 287 288 288 286 286 286 284 281 279 279 280 278 276 272 269 270
283 277 270 261 258 258 259 265 272 278 281 287 285 283 277 255 242 222 209 207 216 237 261 277 283 285 284 281 281 282 285 285 286 286 288 288 287 286 286 287 283 283 282 280 277 274 271 269 269
291 284 275 266 266 268 265 266 271 275 280 282 281 280 274 251 238 228 214 213 224 246 267 277 281 282 281 282 283 285 286 286 285 287 289 289 288 286 286 289 286 285 285 280 275 271 270 270 270
324 317 305 289 283 283 279 278 279 276 277 279 274 269 260 252 240 233 231 232 231 248 266 276 277 277 278 280 281 282 286 286 287 288 291 292 292 288 289 289 288 288 287 281 275 273 270 270 269
354 348 337 317 312 308 299 292 291 289 283 279 273 267 257 251 253 246 242 230 238 251 262 268 272 274 276 277 277 276 281 287 290 289 291 294 296 292 291 290 290 289 287 282 279 275 275 273 270
8 1 351 334 325 323 319 314 305 300 296 282 267 259 255 250 248 246 240 239 242 252 262 268 273 276 278 276 277 277 282 287 291 292 292 294 295 293 292 292 293 292 289 285 282 279 277 275 271
4 358 350 340 336 333 330 326 314 306 301 287 268 257 248 239 238 239 234 231 239 248 259 269 279 282 285 286 288 291 291 293 297 297 298 298 297 297 297 296 296 294 292 288 285 281 279 276 273
357 357 353 347 343 338 333 330 321 318 311 291 268 254 246 239 224 220 220 230 239 245 258 273 284 289 294 294 299 303 300 299 302 301 301 301 302 303 301 299 298 297 295 292 288 283 280 277 275
355 353 350 347 343 342 341 340 335 328 317 293 274 265 247 227 209 204 215 221 235 249 261 274 286 291 298 297 308 314 311 307 305 304 305 306 305 305 303 302 300 299 297 296 293 289 284 281 278
353 351 345 340 340 341 343 347 346 337 322 302 276 260 235 215 201 195 201 214 231 243 254 263 281 291 299 307 312 316 316 314 310 309 309 308 308 308 307 306 304 302 301 300 297 294 290 286 282
349 342 335 331 335 341 346 346 347 345 339 313 274 249 220 199 200 196 198 212 228 235 243 260 273 294 302 310 316 318 319 318 317 315 314 313 314 313 312 312 311 310 307 303 300 297 295 291 287
334 329 329 330 333 336 342 348 349 351 354 348 326 193 172 181 190 190 192 200 209 220 238 266 287 298 300 306 315 320 324 325 323 322 320 319 318 318 317 317 316 315 312 310 306 304 301 297 292
317 320 326 328 330 335 345 355 1 10 25 30 41 105 129 149 171 174 181 184 190 211 239 276 294 299 302 312 318 323 329 329 328 328 328 327 326 326 324 323 320 317 314 312 309 306 304 301 296
311 320 328 332 331 335 343 359 14 29 33 47 62 84 113 133 145 153 165 175 192 214 251 285 303 303 307 312 319 328 334 335 336 337 338 338 335 331 328 326 324 322 319 315 310 307 304 301 298
307 312 321 332 337 337 340 357 30 46 47 55 72 81 98 124 134 136 155 169 201 244 274 300 306 298 302 310 321 334 338 339 340 341 340 339 337 334 330 328 325 323 321 318 313 308 305 302 298
299 306 314 321 330 329 336 3 40 52 57 64 72 82 96 112 120 118 131 161 220 250 271 288 286 287 296 313 327 334 337 339 341 341 341 339 337 335 332 331 329 326 322 319 315 311 308 304 300
301 302 305 311 316 323 327 356 55 60 70 73 72 81 91 105 114 122 150 206 211 231 258 274 281 291 304 318 328 332 334 336 337 338 339 339 338 335 334 332 329 326 323 320 318 315 311 307 303
299 303 307 309 313 315 329 350 18 58 71 65 61 67 75 75 108 143 181 219 230 245 264 280 289 299 309 317 324 328 330 331 333 335 336 336 335 334 332 330 327 325 323 321 319 317 314 311 306
299 298 299 303 304 308 319 338 359 63 68 54 47 45 41 40 54 241 244 241 244 253 268 281 289 297 305 312 317 322 326 328 329 329 330 330 330 331 329 326 324 324 323 322 320 318 316 313 309
292 290 289 291 289 294 299 301 301 310 331 352 25 60 78 123 232 231 234 237 242 249 266 279 286 291 299 307 314 318 321 322 323 324 324 325 327 327 326 325 324 323 322 321 320 318 316 313 310
287 283 283 284 282 284 285 288 292 288 300 306 325 6 37 55 225 225 235 253 267 271 276 283 289 295 300 305 310 313 314 315 317 319 320 321 323 324 324 323 323 322 322 322 321 319 316 313 311
282 282 280 277 274 277 278 285 289 289 297 303 303 326 352 352 327 305 292 292 291 289 287 288 292 299 302 304 307 309 310 312 313 314 316 318 319 320 320 321 321 322 321 321 320 319 316 313 311
Height
5926 5925 5924 5924 5924 5923 5922 5921 5918 5916 5914 5914 5913 5912 5913 5917 5918 5919 5917 5914 5914 5913 5913 5913 5914 5914 5914 5915 5915 5915 5915 5915 5915 5914 5914 5913 5913 5912 5912 5911 5910 5910 5909 5908 5908 5907 5907 5907 5906
5924 5923 5923 5923 5922 5921 5920 5919 5917 5913 5911 5912 5912 5911 5911 5914 5915 5915 5915 5913 5912 5912 5912 5913 5913 5913 5913 5914 5914 5914 5914 5914 5914 5913 5913 5913 5912 5912 5911 5910 5910 5909 5908 5908 5907 5906 5906 5906 5905
5922 5921 5921 5921 5920 5919 5918 5916 5913 5909 5908 5908 5909 5910 5910 5912 5913 5913 5913 5912 5911 5911 5912 5912 5912 5912 5912 5913 5913 5913 5913 5913 5912 5912 5912 5911 5911 5910 5910 5909 5908 5908 5907 5906 5905 5905 5905 5904 5904
5920 5920 5919 5919 5917 5916 5914 5913 5909 5907 5906 5905 5905 5908 5910 5911 5911 5911 5911 5911 5910 5910 5911 5911 5911 5911 5911 5911 5911 5911 5911 5911 5911 5910 5910 5910 5909 5909 5908 5907 5907 5906 5905 5904 5904 5903 5903 5903 5902
5917 5917 5917 5916 5915 5914 5912 5909 5907 5905 5904 5903 5903 5905 5906 5908 5908 5908 5909 5909 5909 5909 5909 5909 5909 5910 5910 5909 5910 5910 5909 5909 5909 5909 5908 5908 5907 5907 5906 5905 5904 5903 5903 5902 5901 5901 5900 5900 5900
5915 5914 5914 5914 5913 5910 5907 5906 5904 5902 5902 5901 5902 5903 5904 5905 5905 5905 5906 5907 5908 5908 5908 5908 5908 5908 5908 5908 5908 5907 5907 5907 5907 5906 5906 5905 5905 5904 5903 5903 5902 5901 5900 5900 5899 5898 5898 5897 5897
5912 5911 5911 5911 5909 5906 5904 5901 5900 5899 5899 5898 5899 5900 5902 5902 5902 5902 5903 5905 5906 5906 5906 5906 5906 5906 5906 5906 5905 5905 5905 5905 5904 5904 5903 5902 5902 5901 5900 5900 5899 5898 5897 5896 5896 5895 5895 5894 5894
5908 5908 5908 5907 5905 5903 5900 5898 5897 5896 5896 5896 5896 5896 5897 5898 5898 5898 5899 5901 5903 5904 5904 5904 5904 5904 5904 5903 5903 5903 5902 5902 5901 5901 5900 5899 5898 5898 5897 5896 5895 5894 5893 5892 5892 5891 5891 5891 5891
5904 5905 5904 5903 5901 5900 5897 5895 5894 5892 5892 5893 5893 5893 5892 5893 5894 5895 5896 5899 5901 5902 5903 5902 5902 5902 5901 5901 5901 5900 5900 5899 5898 5897 5896 5895 5894 5894 5893 5892 5891 5890 5889 5888 5887 5887 5887 5887 5887
5901 5901 5900 5899 5897 5896 5894 5892 5891 5889 5889 5889 5889 5888 5888 5889 5891 5892 5893 5895 5898 5899 5900 5900 5900 5899 5899 5898 5898 5897 5896 5896 5895 5894 5893 5891 5890 5890 5889 5888 5887 5886 5885 5884 5883 5883 5883 5883 5883
5898 5898 5897 5895 5894 5893 5891 5889 5888 5886 5885 5885 5885 5885 5886 5887 5888 5889 5891 5892 5894 5896 5897 5897 5897 5896 5896 5895 5895 5894 5893 5892 5891 5890 5889 5888 5887 5886 5885 5884 5883 5882 5881 5880 5879 5879 5878 5878 5879
5896 5895 5893 5892 5892 5891 5889 5887 5885 5882 5882 5881 5881 5881 5881 5882 5884 5885 5886 5889 5891 5893 5894 5894 5894 5893 5893 5892 5892 5891 5890 5889 5888 5887 5886 5885 5883 5883 5882 5881 5880 5879 5877 5876 5875 5875 5875 5874 5874
5895 5894 5892 5890 5889 5887 5885 5883 5881 5878 5877 5876 5876 5876 5876 5878 5879 5882 5885 5886 5887 5890 5891 5891 5891 5890 5890 5889 5889 5888 5887 5886 5885 5884 5883 5882 5880 5880 5879 5878 5876 5875 5874 5873 5872 5871 5871 5871 5870
5894 5893 5891 5888 5886 5884 5881 5879 5877 5875 5872 5871 5871 5871 5872 5875 5877 5879 5882 5884 5884 5886 5887 5888 5887 5887 5886 5886 5886 5886 5885 5884 5882 5881 5880 5878 5877 5876 5875 5874 5872 5871 5870 5869 5868 5868 5867 5867 5866
5893 5892 5890 5887 5883 5881 5878 5876 5873 5872 5869 5867 5867 5867 5868 5870 5873 5875 5877 5880 5881 5883 5884 5884 5883 5883 5883 5883 5883 5883 5882 5881 5879 5878 5876 5875 5874 5873 5872 5870 5869 5868 5867 5866 5865 5864 5863 5863 5862
5892 5890 5887 5885 5882 5880 5878 5874 5871 5868 5866 5864 5864 5865 5866 5867 5869 5872 5874 5876 5878 5880 5880 5880 5880 5880 5881 5881 5881 5880 5878 5877 5876 5875 5873 5872 5870 5869 5868 5867 5865 5864 5863 5862 5861 5860 5859 5859 5858
5889 5887 5884 5883 5881 5879 5876 5872 5869 5866 5863 5861 5861 5861 5862 5864 5867 5869 5871 5873 5875 5877 5878 5878 5878 5879 5879 5879 5878 5877 5876 5875 5874 5872 5870 5869 5867 5866 5865 5863 5862 5860 5859 5858 5857 5856 5855 5854 5854
5888 5885 5883 5882 5879 5877 5874 5871 5868 5864 5861 5859 5858 5858 5858 5861 5864 5867 5869 5870 5873 5874 5875 5876 5877 5877 5877 5877 5876 5875 5874 5873 5871 5869 5868 5866 5865 5863 5861 5860 5858 5857 5856 5854 5853 5852 5851 5850 5850
5886 5885 5883 5881 5878 5876 5873 5870 5867 5862 5859 5856 5855 5855 5856 5859 5862 5865 5867 5869 5870 5872 5873 5874 5875 5875 5875 5874 5874 5873 5872 5870 5869 5867 5865 5863 5862 5860 5858 5857 5855 5854 5852 5851 5850 5849 5847 5847 5846
5885 5884 5882 5880 5877 5875 5872 5870 5866 5862 5859 5856 5855 5855 5856 5858 5860 5863 5865 5867 5869 5870 5872 5872 5873 5873 5873 5872 5872 5871 5870 5868 5867 5865 5863 5861 5859 5857 5855 5854 5852 5851 5849 5848 5846 5845 5844 5843 5842
5885 5883 5881 5878 5876 5873 5871 5869 5866 5862 5860 5858 5856 5855 5856 5858 5860 5861 5864 5866 5867 5869 5870 5871 5871 5870 5870 5870 5869 5869 5867 5866 5864 5863 5861 5859 5857 5855 5853 5851 5849 5848 5846 5844 5843 5841 5840 5839 5838
5882 5881 5879 5877 5875 5872 5871 5869 5867 5864 5861 5860 5858 5857 5858 5859 5861 5862 5864 5865 5866 5867 5868 5869 5869 5869 5869 5868 5868 5867 5865 5864 5862 5860 5858 5856 5854 5852 5850 5848 5846 5844 5842 5841 5839 5838 5836 5835 5833
5880 5879 5878 5876 5874 5872 5870 5869 5867 5864 5862 5861 5860 5859 5859 5860 5861 5862 5863 5864 5865 5866 5866 5867 5867 5867 5867 5867 5866 5864 5863 5861 5860 5858 5856 5854 5852 5849 5847 5845 5843 5841 5839 5837 5835 5833 5832 5830 5828
5878 5877 5876 5875 5873 5871 5869 5868 5867 5864 5863 5861 5861 5860 5860 5861 5861 5862 5863 5863 5864 5864 5865 5865 5865 5865 5865 5864 5863 5862 5861 5859 5857 5855 5853 5851 5849 5847 5845 5842 5839 5837 5835 5833 5831 5829 5827 5825 5823
5876 5875 5874 5873 5871 5870 5868 5868 5867 5865 5863 5862 5861 5861 5861 5861 5861 5862 5862 5863 5863 5863 5864 5864 5864 5864 5863 5862 5861 5860 5858 5856 5855 5853 5851 5849 5846 5844 5841 5839 5836 5834 5831 5829 5826 5824 5821 5819 5817
5874 5873 5872 5871 5868 5867 5867 5867 5867 5865 5862 5861 5861 5861 5860 5860 5860 5861 5861 5862 5862 5862 5862 5862 5862 5861 5861 5860 5859 5857 5856 5854 5852 5850 5848 5846 5843 5840 5838 5835 5832 5830 5827 5824 5821 5818 5815 5812 5810
5872 5870 5869 5868 5866 5865 5865 5865 5865 5863 5862 5861 5860 5860 5860 5860 5860 5860 5860 5860 5861 5860 5860 5860 5859 5859 5858 5857 5856 5855 5853 5851 5849 5847 5845 5842 5840 5837 5834 5831 5828 5825 5822 5819 5816 5812 5809 5806 5803
5869 5868 5867 5866 5864 5863 5863 5862 5863 5862 5861 5860 5860 5859 5859 5859 5859 5859 5859 5859 5859 5858 5858 5858 5857 5857 5856 5855 5853 5851 5850 5848 5846 5844 5841 5839 5836 5833 5830 5827 5823 5820 5817 5813 5809 5806 5802 5798 5795
5866 5865 5864 5863 5862 5861 5859 5861 5860 5859 5859 5858 5858 5858 5857 5857 5857 5857 5857 5857 5856 5856 5855 5855 5854 5854 5852 5851 5850 5848 5846 5845 5842 5840 5837 5834 5831 5828 5825 5822 5818 5815 5811 5807 5803 5799 5795 5791 5787
5863 5861 5860 5860 5858 5857 5856 5859 5856 5855 5855 5855 5855 5855 5854 5854 5854 5853 5853 5853 5853 5852 5852 5852 5851 5850 5849 5847 5846 5845 5843 5841 5838 5836 5833 5830 5827 5824 5820 5816 5813 5809 5805 5801 5796 5792 5788 5783 5779